[Iaude] MPEC A125: 2024 AB3 [a=2.17,e=0.68,i=5.4,H=26.5]

mpec at marsden.cfa.harvard.edu mpec at marsden.cfa.harvard.edu
Thu Jan 11 08:46:51 EST 2024


M.P.E.C. 2024-A125                             Issued 2024 January 11, 13:45 UT

     The Minor Planet Electronic Circulars contain information on unusual
         minor planets, routine data on comets and natural satellites,
         and occasional editorial announcements.  They are published
    on behalf of Division F of the International Astronomical Union by the
          Minor Planet Center, Smithsonian Astrophysical Observatory,
                          Cambridge, MA 02138, U.S.A.
			  
             Prepared using the Tamkin Foundation Computer Network

                              MPC at CFA.HARVARD.EDU
            URL https://www.minorplanetcenter.net/    ISSN 1523-6714

                                    2024 AB3                                    


Observations:
     K24A03B*1C2024 01 10.36148107 55 20.111+15 45 15.98         21.43GVEA125G96
     K24A03B 1C2024 01 10.36664707 55 20.777+15 44 37.54         21.18GVEA125G96
     K24A03B 1C2024 01 10.37182707 55 21.418+15 43 58.69         21.53GVEA125G96
     K24A03B KC2024 01 10.41431307 55 27.020+15 38 37.10         21.22GVEA125V06
     K24A03B KC2024 01 10.41789007 55 27.520+15 38 09.40         22.13GVEA125V06
     K24A03B KC2024 01 10.46926207 55 34.740+15 31 32.70         21.85GVEA125V06
     K24A03B KC2024 01 10.47144007 55 35.030+15 31 15.70         21.24GVEA125V06
     K24A03B KC2024 01 11.22168907 58 11.130+13 43 41.80         20.79GVEA125V06
     K24A03B KC2024 01 11.22388307 58 11.550+13 43 20.80               VEA125V06
     K24A03B KC2024 01 11.22607907 58 11.960+13 43 00.20         20.98GVEA125V06
     K24A03B KC2024 01 11.22827307 58 12.360+13 42 39.30         21.40GVEA125V06
     K24A03B 1C2024 01 11.29641007 58 24.337+13 31 38.82         21.36GVEA125G96
     K24A03B 1C2024 01 11.30157807 58 25.237+13 30 47.23         21.49GVEA125G96
     K24A03B 1C2024 01 11.30673907 58 26.141+13 29 55.79         20.96GVEA125G96
     K24A03B 1C2024 01 11.31188907 58 27.023+13 29 06.29         20.63GVEA125G96

Observer details:
G96 Mt. Lemmon Survey.  Observer J. K. Hogan.  Measurers T. Beuden, V. F.
    Carvajal, D. Fay, J. B. Fazekas, D. C. Fuls, A. R. Gibbs, A. D. Grauer, H.
    Groeller, J. K. Hogan, R. A. Kowalski, S. M. Larson, G. J. Leonard, D.
    Rankin, R. L. Seaman, F. C. Shelly, K. W. Wierzchos.  1.5-m reflector +
    10K CCD.
V06 Catalina Sky Survey-Kuiper.  Observer K. W. Wierzchos.  Measurers T.
    Beuden, V. F. Carvajal, D. Fay, J. B. Fazekas, D. C. Fuls, A. R. Gibbs, A.
    D. Grauer, H. Groeller, J. K. Hogan, R. A. Kowalski, S. M. Larson, G. J.
    Leonard, D. Rankin, R. L. Seaman, F. C. Shelly, K. W. Wierzchos.  1.55-m
    reflector + 1K CCD.

Orbital elements:
2024 AB3                                                 Earth MOID = 0.0170 AU
Epoch 2023 Sept. 13.0 TT = JDT 2460200.5                Bell                    
M 307.64925              (2000.0)            P               Q                  
n   0.30841074     Peri.  266.14961     -0.97302123     +0.21229302             
a   2.1696169      Node   286.09040     -0.15607283     -0.89403882             
e   0.6839690      Incl.    5.39512     -0.16991458     -0.39449495             
P   3.20           H   26.58          G   0.15           U   9                  
Residuals in seconds of arc
240110 G96  0.1+  0.1-    240110 V06  0.1+  0.0     240111 V06  0.2-  0.2+
240110 G96  0.2+  0.1+    240110 V06  0.3-  0.0     240111 G96  0.0   0.4+
240110 G96  0.2-  0.1+    240111 V06  0.9-  0.1-    240111 G96  0.0   0.4-
240110 V06  0.2-  0.1+    240111 V06  0.5-  0.2-    240111 G96  0.2+  0.9-
240110 V06  0.1+  0.2-    240111 V06  0.3-  0.1+    240111 G96  0.0   0.5+

Ephemeris:
2024 AB3                 a,e,i = 2.17, 0.68, 5                   q = 0.6857
Date    TT    R. A. (2000) Decl.     Delta      r    Elong.  Phase     V
2023 12 12    07 30 12.9 +27 00 34   0.4368  1.3773   148.9    21.7    26.5
...
2023 12 27    07 39 24.1 +25 20 01   0.2416  1.2153   161.9    14.6    24.7
...
2024 01 04    07 45 08.3 +22 37 11   0.1470  1.1278   168.6    10.0    23.3
...
2024 01 10    07 54 22.1 +16 28 32   0.07989 1.0623   170.5     8.8    21.8
2024 01 11    07 57 19.7 +14 18 58   0.06910 1.0514   169.4     9.9    21.5
2024 01 12    08 01 15.3 +11 22 14   0.05849 1.0406   167.2    12.1    21.2
...
2024 01 18    13 55 23.1 -72 27 29   0.02258 0.9764    70.3   108.4    22.4
...
2024 01 26    19 14 59.2 -39 51 41   0.1020  0.8943    26.4   150.7    29.9
...
2024 02 10    19 35 58.5 -32 08 26   0.2792  0.7627    31.5   137.5    29.8

M. P. C. Staff               (C) Copyright 2024 MPC           M.P.E.C. 2024-A125





More information about the Iaude mailing list